Time,TemperatureF,DewpointF,PressureIn,WindDirection,WindDirectionDegrees,WindSpeedMPH,WindSpeedGustMPH,Humidity,HourlyPrecipIn,Conditions,Clouds,dailyrainin,SoftwareType,DateUTC
2013-05-22 00:01:00,47.2,45.3,29.99,ENE,58,0.0,0.0,93,0.00,RA,,0.00,WeatherDisplay:10.37,2013-05-22 04:01:00,
2013-05-22 00:02:00,47.3,45.4,29.99,ENE,58,1.0,0.0,93,0.00,RA,,0.00,WeatherDisplay:10.37,2013-05-22 04:02:00,
2013-05-22 00:07:00,47.5,45.6,29.99,ENE,58,0.0,0.0,93,0.00,OVC,,0.00,WeatherDisplay:10.37,2013-05-22 04:07:00,
2013-05-22 00:12:00,47.4,46.3,30.00,ENE,58,1.1,1.1,96,0.00,OVC,,0.00,WeatherDisplay:10.37,2013-05-22 04:12:00,
2013-05-22 00:17:00,47.5,46.4,30.00,ENE,58,2.0,2.0,96,0.00,OVC,,0.00,WeatherDisplay:10.37,2013-05-22 04:17:00,
2013-05-22 00:22:00,47.3,46.2,30.00,ENE,58,1.1,1.1,96,0.00,OVC,,0.00,WeatherDisplay:10.37,2013-05-22 04:22:00,
2013-05-22 00:27:00,47.2,46.1,30.00,ENE,58,1.1,1.1,96,0.00,OVC,,0.00,WeatherDisplay:10.37,2013-05-22 04:27:00,
2013-05-22 00:32:00,47.2,47.2,30.02,ENE,58,1.1,0.0,100,0.00,OVC,,0.00,WeatherDisplay:10.37,2013-05-22 04:32:00,
2013-05-22 00:37:00,47.5,47.5,30.02,ENE,58,2.0,2.0,100,0.00,OVC,,0.00,WeatherDisplay:10.37,2013-05-22 04:37:00,
2013-05-22 00:42:00,48.1,48.1,30.02,NE,46,2.3,2.3,100,0.00,OVC,,0.00,WeatherDisplay:10.37,2013-05-22 04:42:00,
2013-05-22 00:47:00,47.8,47.8,30.02,North,0,3.5,3.5,100,0.00,OVC,,0.00,WeatherDisplay:10.37,2013-05-22 04:47:00,
2013-05-22 00:52:00,47.7,47.7,29.99,North,3,3.5,3.5,100,0.00,OVC,,0.00,WeatherDisplay:10.37,2013-05-22 04:52:00,
2013-05-22 00:57:00,47.6,47.6,29.99,NE,42,1.1,1.1,100,0.00,OVC,,0.00,WeatherDisplay:10.37,2013-05-22 04:57:00,
2013-05-22 01:02:00,46.9,46.9,29.99,NW,323,5.8,5.8,100,0.00,OVC,,0.00,WeatherDisplay:10.37,2013-05-22 05:02:00,
2013-05-22 01:07:00,46.8,46.8,29.99,NW,320,3.5,3.5,100,0.00,OVC,,0.00,WeatherDisplay:10.37,2013-05-22 05:07:00,
2013-05-22 01:12:00,47.0,45.1,29.94,NW,320,2.3,2.3,93,0.00,OVC,,0.00,WeatherDisplay:10.37,2013-05-22 05:12:00,
2013-05-22 01:17:00,47.1,45.2,29.94,NW,320,2.0,2.0,93,0.00,OVC,,0.00,WeatherDisplay:10.37,2013-05-22 05:17:00,
2013-05-22 01:22:00,47.4,45.5,29.94,NNW,332,3.5,3.5,93,0.00,OVC,,0.00,WeatherDisplay:10.37,2013-05-22 05:22:00,
2013-05-22 01:27:00,47.7,45.8,29.94,NE,42,3.5,3.5,93,0.00,OVC,,0.00,WeatherDisplay:10.37,2013-05-22 05:27:00,
2013-05-22 01:32:00,48.0,46.1,29.90,NE,45,3.5,0.0,93,0.00,-RA,,0.00,WeatherDisplay:10.37,2013-05-22 05:32:00,
2013-05-22 01:37:00,48.1,46.2,29.90,NE,45,2.3,2.3,93,0.00,-RA,,0.00,WeatherDisplay:10.37,2013-05-22 05:37:00,
2013-05-22 01:42:00,47.7,45.8,29.90,NE,45,1.1,1.1,93,0.00,-RA,,0.00,WeatherDisplay:10.37,2013-05-22 05:42:00,
2013-05-22 01:47:00,47.6,45.7,29.90,NNE,31,3.5,3.5,93,0.00,-RA,,0.00,WeatherDisplay:10.37,2013-05-22 05:47:00,
2013-05-22 01:52:00,47.8,45.9,29.90,NNE,29,0.0,0.0,93,0.00,-RA,,0.00,WeatherDisplay:10.37,2013-05-22 05:52:00,
2013-05-22 01:57:00,47.7,45.8,29.90,NNE,29,2.3,2.3,93,0.00,-RA,,0.00,WeatherDisplay:10.37,2013-05-22 05:57:00,
2013-05-22 02:02:00,47.6,45.7,29.90,NNE,29,2.0,2.0,93,0.00,-RA,,0.00,WeatherDisplay:10.37,2013-05-22 06:02:00,
2013-05-22 02:07:00,47.6,45.7,29.90,NNE,29,1.1,0.0,93,0.00,-RA,,0.00,WeatherDisplay:10.37,2013-05-22 06:07:00,
2013-05-22 02:12:00,47.6,46.5,29.96,NNE,29,0.0,0.0,96,0.00,OVC,,0.00,WeatherDisplay:10.37,2013-05-22 06:12:00,
2013-05-22 02:17:00,47.8,46.7,29.96,NNE,29,0.0,0.0,96,0.00,OVC,,0.00,WeatherDisplay:10.37,2013-05-22 06:17:00,
2013-05-22 02:22:00,47.6,46.5,29.96,NNE,29,0.0,0.0,96,0.00,OVC,,0.00,WeatherDisplay:10.37,2013-05-22 06:22:00,
2013-05-22 02:27:00,48.1,47.0,29.96,NNE,29,2.3,2.3,96,0.00,OVC,,0.00,WeatherDisplay:10.37,2013-05-22 06:27:00,
2013-05-22 02:32:00,47.8,46.7,29.96,NNE,29,0.0,0.0,96,0.00,OVC,,0.00,WeatherDisplay:10.37,2013-05-22 06:32:00,
2013-05-22 02:37:00,47.8,46.7,29.96,NNE,29,0.0,0.0,96,0.00,OVC,,0.00,WeatherDisplay:10.37,2013-05-22 06:37:00,
2013-05-22 02:42:00,47.7,46.6,29.96,NNE,29,0.0,0.0,96,0.00,OVC,,0.00,WeatherDisplay:10.37,2013-05-22 06:42:00,
2013-05-22 02:47:00,47.8,46.7,29.96,NNE,29,0.0,0.0,96,0.00,OVC,,0.00,WeatherDisplay:10.37,2013-05-22 06:47:00,
2013-05-22 02:52:00,47.6,46.5,29.96,NNE,29,0.0,0.2,96,0.00,OVC,,0.00,WeatherDisplay:10.37,2013-05-22 06:52:00,
2013-05-22 02:57:00,47.7,46.6,29.96,NNE,29,0.0,0.0,96,0.00,OVC,,0.00,WeatherDisplay:10.37,2013-05-22 06:57:00,
2013-05-22 03:02:00,47.7,46.6,29.96,NNE,29,0.0,0.0,96,0.00,OVC,,0.00,WeatherDisplay:10.37,2013-05-22 07:02:00,
2013-05-22 03:07:00,47.6,46.5,29.96,NNE,29,0.0,0.0,96,0.00,OVC,,0.00,WeatherDisplay:10.37,2013-05-22 07:07:00,
2013-05-22 03:12:00,47.6,46.5,29.95,NNE,29,0.0,0.0,96,0.00,OVC,,0.00,WeatherDisplay:10.37,2013-05-22 07:12:00,
2013-05-22 03:17:00,47.6,46.5,29.95,NNE,29,0.0,0.0,96,0.00,OVC,,0.00,WeatherDisplay:10.37,2013-05-22 07:17:00,
2013-05-22 03:22:00,47.5,46.4,29.95,NNE,29,0.0,0.0,96,0.00,OVC,,0.00,WeatherDisplay:10.37,2013-05-22 07:22:00,
2013-05-22 03:27:00,47.6,46.5,29.95,NNE,29,0.0,0.0,96,0.00,OVC,,0.00,WeatherDisplay:10.37,2013-05-22 07:27:00,
2013-05-22 03:32:00,47.6,47.6,29.96,NNE,29,1.1,1.1,100,0.00, +RA,,0.00,WeatherDisplay:10.37,2013-05-22 07:32:00,
2013-05-22 03:37:00,47.7,47.7,29.96,NNE,29,2.3,2.3,100,0.00, +RA,,0.00,WeatherDisplay:10.37,2013-05-22 07:37:00,
2013-05-22 03:42:00,47.7,47.7,29.96,NNE,29,0.0,0.0,100,0.00, +RA,,0.00,WeatherDisplay:10.37,2013-05-22 07:42:00,
2013-05-22 03:47:00,47.7,47.7,29.96,NNE,29,0.0,0.0,100,0.00, +RA,,0.00,WeatherDisplay:10.37,2013-05-22 07:47:00,
2013-05-22 03:52:00,47.7,47.7,29.96,NNE,29,0.0,0.0,100,0.00, +RA,,0.00,WeatherDisplay:10.37,2013-05-22 07:52:00,
2013-05-22 03:57:00,47.7,47.7,29.96,NNE,29,0.0,0.0,100,0.00, +RA,,0.00,WeatherDisplay:10.37,2013-05-22 07:57:00,
2013-05-22 04:02:00,47.8,47.8,29.96,NNE,29,0.0,0.1,100,0.00, +RA,,0.00,WeatherDisplay:10.37,2013-05-22 08:02:00,
2013-05-22 04:07:00,47.7,47.7,29.96,NNE,29,1.1,1.1,100,0.00, +RA,,0.00,WeatherDisplay:10.37,2013-05-22 08:07:00,
2013-05-22 04:12:00,48.0,48.0,29.95,NNE,29,0.0,0.0,100,0.00,OVC,,0.00,WeatherDisplay:10.37,2013-05-22 08:12:00,
2013-05-22 04:17:00,47.9,47.9,29.95,NNE,29,0.0,0.0,100,0.00,OVC,,0.00,WeatherDisplay:10.37,2013-05-22 08:17:00,
2013-05-22 04:22:00,47.9,47.9,29.95,NNE,29,0.0,0.1,100,0.00,OVC,,0.00,WeatherDisplay:10.37,2013-05-22 08:22:00,
2013-05-22 04:27:00,47.9,47.9,29.95,NNE,29,1.1,0.0,100,0.00,OVC,,0.00,WeatherDisplay:10.37,2013-05-22 08:27:00,
2013-05-22 04:32:00,47.9,47.9,29.95,NNE,29,1.1,1.1,100,0.00,OVC,,0.00,WeatherDisplay:10.37,2013-05-22 08:32:00,
2013-05-22 04:37:00,47.4,47.4,29.95,NNE,29,2.3,2.3,100,0.00,OVC,,0.00,WeatherDisplay:10.37,2013-05-22 08:37:00,
2013-05-22 04:42:00,47.3,47.3,29.95,NNE,29,1.1,1.1,100,0.00,OVC,,0.00,WeatherDisplay:10.37,2013-05-22 08:42:00,
2013-05-22 04:47:00,47.4,47.4,29.95,NNE,29,1.1,0.0,100,0.00,OVC,,0.00,WeatherDisplay:10.37,2013-05-22 08:47:00,
2013-05-22 04:52:00,47.6,47.6,29.90,NNE,29,0.0,0.0,100,0.00,-RA,,0.00,WeatherDisplay:10.37,2013-05-22 08:52:00,
2013-05-22 04:57:00,47.4,47.4,29.90,NNE,29,0.0,0.0,100,0.00,-RA,,0.00,WeatherDisplay:10.37,2013-05-22 08:57:00,
2013-05-22 05:02:00,47.6,47.6,29.90,NNE,29,0.0,0.0,100,0.00,-RA,,0.00,WeatherDisplay:10.37,2013-05-22 09:02:00,
2013-05-22 05:07:00,47.6,47.6,29.90,NNE,29,0.0,0.0,100,0.00,-RA,,0.00,WeatherDisplay:10.37,2013-05-22 09:07:00,
2013-05-22 05:12:00,47.4,47.4,29.91,NNE,29,1.1,1.1,100,0.00,OVC,,0.00,WeatherDisplay:10.37,2013-05-22 09:12:00,
2013-05-22 05:17:00,47.4,47.4,29.91,NNE,29,0.0,0.0,100,0.00,OVC,,0.00,WeatherDisplay:10.37,2013-05-22 09:17:00,
2013-05-22 05:22:00,47.6,47.6,29.91,NNE,29,0.0,0.0,100,0.00,OVC,,0.00,WeatherDisplay:10.37,2013-05-22 09:22:00,
2013-05-22 05:27:00,47.7,47.7,29.91,NNE,29,0.0,0.0,100,0.00,OVC,,0.00,WeatherDisplay:10.37,2013-05-22 09:27:00,
2013-05-22 05:32:00,47.6,47.6,29.91,NNE,29,0.0,0.0,100,0.00,OVC,,0.00,WeatherDisplay:10.37,2013-05-22 09:32:00,
2013-05-22 05:37:00,47.7,47.7,29.91,NNE,29,0.0,0.0,100,0.01,OVC,,0.01,WeatherDisplay:10.37,2013-05-22 09:37:00,
2013-05-22 05:42:00,47.7,47.7,29.91,NNE,29,0.0,0.0,100,0.01,OVC,,0.01,WeatherDisplay:10.37,2013-05-22 09:42:00,
2013-05-22 05:47:00,47.5,47.5,29.91,NNE,29,1.1,1.1,100,0.01,OVC,,0.01,WeatherDisplay:10.37,2013-05-22 09:47:00,
2013-05-22 05:52:00,47.5,47.5,29.91,NNE,29,0.0,0.0,100,0.01,OVC,,0.01,WeatherDisplay:10.37,2013-05-22 09:52:00,
2013-05-22 05:57:00,47.5,47.5,29.91,NNE,29,0.0,0.0,100,0.01,OVC,,0.01,WeatherDisplay:10.37,2013-05-22 09:57:00,
2013-05-22 06:02:00,47.5,47.5,29.91,NNE,29,0.0,0.0,100,0.01,OVC,,0.01,WeatherDisplay:10.37,2013-05-22 10:02:00,
2013-05-22 06:07:00,47.8,47.8,29.91,NNE,29,0.0,0.0,100,0.01,OVC,,0.01,WeatherDisplay:10.37,2013-05-22 10:07:00,
2013-05-22 06:12:00,47.8,46.7,29.92,NNE,29,0.0,0.0,96,0.01,OVC,,0.01,WeatherDisplay:10.37,2013-05-22 10:12:00,
2013-05-22 06:17:00,47.8,46.7,29.92,NNE,29,0.0,0.0,96,0.01,OVC,,0.01,WeatherDisplay:10.37,2013-05-22 10:17:00,
2013-05-22 06:22:00,47.8,46.7,29.92,NNE,29,0.0,0.0,96,0.01,OVC,,0.01,WeatherDisplay:10.37,2013-05-22 10:22:00,
2013-05-22 06:27:00,47.9,46.8,29.92,NNE,29,0.0,0.0,96,0.01,OVC,,0.01,WeatherDisplay:10.37,2013-05-22 10:27:00,
2013-05-22 06:32:00,47.9,46.8,29.92,NNE,29,0.0,0.0,96,0.01,OVC,,0.01,WeatherDisplay:10.37,2013-05-22 10:32:00,
2013-05-22 06:37:00,48.2,47.1,29.92,NNE,29,0.0,0.0,96,0.00,OVC,,0.01,WeatherDisplay:10.37,2013-05-22 10:37:00,
2013-05-22 06:42:00,48.2,47.1,29.92,NNE,29,0.0,0.0,96,0.00,OVC,,0.01,WeatherDisplay:10.37,2013-05-22 10:42:00,
2013-05-22 06:47:00,48.2,47.1,29.92,NNE,29,0.0,0.0,96,0.00,OVC,,0.01,WeatherDisplay:10.37,2013-05-22 10:47:00,
2013-05-22 06:52:00,48.3,47.2,29.92,NNE,29,0.0,0.0,96,0.00,OVC,,0.01,WeatherDisplay:10.37,2013-05-22 10:52:00,
2013-05-22 06:57:00,48.6,47.5,29.92,NNE,29,0.0,0.0,96,0.00,OVC,,0.01,WeatherDisplay:10.37,2013-05-22 10:57:00,
2013-05-22 07:02:00,48.7,47.6,29.92,NNE,29,0.0,0.0,96,0.00,OVC,,0.01,WeatherDisplay:10.37,2013-05-22 11:02:00,
2013-05-22 07:07:00,48.7,47.6,29.92,NNE,29,0.0,0.0,96,0.00,OVC,,0.01,WeatherDisplay:10.37,2013-05-22 11:07:00,
2013-05-22 07:12:00,48.7,48.7,29.93,NNE,29,0.0,0.0,100,0.00,OVC,,0.01,WeatherDisplay:10.37,2013-05-22 11:12:00,
2013-05-22 07:17:00,48.4,48.4,29.93,NNE,29,0.0,0.0,100,0.00,OVC,,0.01,WeatherDisplay:10.37,2013-05-22 11:17:00,
2013-05-22 07:22:00,48.8,48.8,29.93,NNE,29,0.0,0.0,100,0.00,OVC,,0.01,WeatherDisplay:10.37,2013-05-22 11:22:00,
2013-05-22 07:27:00,48.7,48.7,29.93,NNE,29,0.0,0.0,100,0.00,OVC,,0.01,WeatherDisplay:10.37,2013-05-22 11:27:00,
2013-05-22 07:32:00,48.8,48.8,29.91,NNE,29,0.0,0.0,100,0.00,OVC,,0.01,WeatherDisplay:10.37,2013-05-22 11:32:00,
2013-05-22 07:37:00,48.6,48.6,29.91,NNE,29,1.1,1.1,100,0.00,OVC,,0.01,WeatherDisplay:10.37,2013-05-22 11:37:00,
2013-05-22 07:42:00,48.5,48.5,29.91,NNE,29,0.0,0.0,100,0.00,OVC,,0.01,WeatherDisplay:10.37,2013-05-22 11:42:00,
2013-05-22 07:47:00,48.8,48.8,29.91,NNE,29,0.0,0.0,100,0.00,OVC,,0.01,WeatherDisplay:10.37,2013-05-22 11:47:00,
2013-05-22 07:52:00,49.0,49.0,29.91,NNE,29,0.0,0.0,100,0.00,OVC,,0.01,WeatherDisplay:10.37,2013-05-22 11:52:00,
2013-05-22 07:57:00,49.1,49.1,29.91,NNE,29,0.0,0.0,100,0.00,OVC,,0.01,WeatherDisplay:10.37,2013-05-22 11:57:00,
2013-05-22 08:02:00,49.2,49.2,29.91,NNE,29,0.0,0.0,100,0.00,OVC,,0.01,WeatherDisplay:10.37,2013-05-22 12:02:00,
2013-05-22 08:08:00,49.0,49.0,29.91,NNE,29,0.0,0.0,100,0.00,OVC,,0.01,WeatherDisplay:10.37,2013-05-22 12:08:00,
2013-05-22 08:13:00,49.1,49.1,29.91,NNE,29,0.0,0.0,100,0.00,OVC,,0.01,WeatherDisplay:10.37,2013-05-22 12:13:00,
2013-05-22 08:18:00,49.3,49.3,29.91,NNE,29,0.0,0.0,100,0.00,OVC,,0.01,WeatherDisplay:10.37,2013-05-22 12:18:00,
2013-05-22 08:23:00,49.5,49.5,29.94,NNE,29,0.0,0.0,100,0.00,OVC,,0.01,WeatherDisplay:10.37,2013-05-22 12:23:00,
2013-05-22 08:28:00,49.5,49.5,29.94,NNE,29,0.0,0.0,100,0.00,OVC,,0.01,WeatherDisplay:10.37,2013-05-22 12:28:00,
2013-05-22 08:33:00,49.5,49.5,29.94,NNE,29,0.0,0.0,100,0.00,OVC,,0.01,WeatherDisplay:10.37,2013-05-22 12:33:00,
2013-05-22 08:38:00,49.5,49.5,29.94,NNE,29,1.0,0.0,100,0.00,OVC,,0.01,WeatherDisplay:10.37,2013-05-22 12:38:00,
2013-05-22 08:43:00,49.6,49.6,29.94,NNE,29,0.0,0.0,100,0.00,OVC,,0.01,WeatherDisplay:10.37,2013-05-22 12:43:00,
2013-05-22 08:48:00,49.5,49.5,29.94,NNE,29,0.0,0.0,100,0.00,OVC,,0.01,WeatherDisplay:10.37,2013-05-22 12:48:00,
2013-05-22 08:53:00,49.6,49.6,29.94,NNE,29,0.0,0.0,100,0.00,OVC,,0.01,WeatherDisplay:10.37,2013-05-22 12:53:00,
2013-05-22 08:58:00,49.8,49.8,29.94,NNE,29,0.0,0.0,100,0.00,OVC,,0.01,WeatherDisplay:10.37,2013-05-22 12:58:00,
2013-05-22 09:03:00,49.7,48.6,29.93,NNE,29,0.0,0.0,96,0.00,OVC,,0.01,WeatherDisplay:10.37,2013-05-22 13:03:00,
2013-05-22 09:08:00,49.8,48.7,29.93,NNE,29,0.0,0.0,96,0.00,OVC,,0.01,WeatherDisplay:10.37,2013-05-22 13:08:00,
2013-05-22 09:13:00,50.0,48.9,29.93,NNE,29,0.0,0.0,96,0.00,OVC,,0.01,WeatherDisplay:10.37,2013-05-22 13:13:00,
2013-05-22 09:18:00,49.6,48.5,29.93,NNE,29,0.0,0.0,96,0.00,OVC,,0.01,WeatherDisplay:10.37,2013-05-22 13:18:00,
2013-05-22 09:23:00,49.7,48.6,29.93,NNE,29,0.0,0.0,96,0.00,OVC,,0.01,WeatherDisplay:10.37,2013-05-22 13:23:00,
2013-05-22 09:28:00,50.0,48.9,29.93,NNE,29,0.0,0.0,96,0.00,OVC,,0.01,WeatherDisplay:10.37,2013-05-22 13:28:00,
2013-05-22 09:33:00,50.2,49.1,29.93,NNE,29,0.0,0.0,96,0.00,OVC,,0.01,WeatherDisplay:10.37,2013-05-22 13:33:00,
2013-05-22 09:38:00,50.5,49.4,29.93,NNE,29,0.0,0.0,96,0.00,OVC,,0.01,WeatherDisplay:10.37,2013-05-22 13:38:00,
2013-05-22 09:43:00,50.6,49.5,29.93,NNE,29,0.0,0.0,96,0.00,OVC,,0.01,WeatherDisplay:10.37,2013-05-22 13:43:00,
2013-05-22 09:48:00,50.8,49.7,29.93,NNE,29,1.1,1.1,96,0.00,OVC,,0.01,WeatherDisplay:10.37,2013-05-22 13:48:00,
2013-05-22 09:53:00,50.9,49.8,29.93,NNE,29,0.0,0.0,96,0.00,OVC,,0.01,WeatherDisplay:10.37,2013-05-22 13:53:00,
2013-05-22 09:58:00,50.3,49.2,29.93,NNE,29,0.0,0.0,96,0.00,OVC,,0.01,WeatherDisplay:10.37,2013-05-22 13:58:00,
2013-05-22 10:03:00,50.8,49.7,29.93,NNE,29,1.1,1.1,96,0.00,OVC,,0.01,WeatherDisplay:10.37,2013-05-22 14:03:00,
2013-05-22 10:08:00,50.8,49.7,29.93,NNE,29,0.0,0.0,96,0.00,OVC,,0.01,WeatherDisplay:10.37,2013-05-22 14:08:00,
2013-05-22 10:13:00,51.2,49.0,29.92,NNE,29,1.1,0.0,92,0.00,OVC,,0.01,WeatherDisplay:10.37,2013-05-22 14:13:00,
2013-05-22 10:18:00,51.2,49.0,29.92,NNE,29,2.3,2.3,92,0.00,OVC,,0.01,WeatherDisplay:10.37,2013-05-22 14:18:00,
2013-05-22 10:23:00,51.2,49.0,29.92,NNE,29,1.1,0.0,92,0.00,OVC,,0.01,WeatherDisplay:10.37,2013-05-22 14:23:00,
2013-05-22 10:28:00,50.9,48.7,29.92,NNE,29,1.1,0.0,92,0.00,OVC,,0.01,WeatherDisplay:10.37,2013-05-22 14:28:00,
2013-05-22 10:33:00,51.2,49.0,29.92,NNE,29,3.5,3.5,92,0.00,OVC,,0.01,WeatherDisplay:10.37,2013-05-22 14:33:00,
2013-05-22 10:38:00,51.3,49.1,29.92,NNE,29,2.3,2.3,92,0.00,OVC,,0.01,WeatherDisplay:10.37,2013-05-22 14:38:00,
2013-05-22 10:43:00,51.4,49.2,29.92,NNE,29,3.5,3.5,92,0.00,OVC,,0.01,WeatherDisplay:10.37,2013-05-22 14:43:00,
2013-05-22 10:48:00,51.5,49.3,29.92,NNE,29,2.3,2.3,92,0.00,OVC,,0.01,WeatherDisplay:10.37,2013-05-22 14:48:00,
2013-05-22 10:53:00,51.5,49.3,29.92,NNE,29,3.5,3.5,92,0.00,OVC,,0.01,WeatherDisplay:10.37,2013-05-22 14:53:00,
2013-05-22 10:58:00,51.4,49.2,29.92,NNE,30,3.5,3.5,92,0.00,OVC,,0.01,WeatherDisplay:10.37,2013-05-22 14:58:00,
2013-05-22 11:03:00,51.6,49.4,29.92,NNE,30,3.5,3.5,92,0.00,OVC,,0.01,WeatherDisplay:10.37,2013-05-22 15:03:00,
2013-05-22 11:08:00,51.7,49.5,29.92,NNE,30,3.5,3.5,92,0.00,OVC,,0.01,WeatherDisplay:10.37,2013-05-22 15:08:00,
2013-05-22 11:13:00,52.3,49.5,29.94,NNE,30,2.3,2.3,90,0.00,OVC,,0.01,WeatherDisplay:10.37,2013-05-22 15:13:00,
2013-05-22 11:18:00,51.6,48.8,29.94,NNE,30,3.5,3.5,90,0.00,OVC,,0.01,WeatherDisplay:10.37,2013-05-22 15:18:00,
2013-05-22 11:23:00,51.8,49.0,29.94,NNE,30,2.3,2.3,90,0.00,OVC,,0.01,WeatherDisplay:10.37,2013-05-22 15:23:00,
2013-05-22 11:28:00,51.6,48.8,29.94,NNE,30,2.3,2.3,90,0.00,OVC,,0.01,WeatherDisplay:10.37,2013-05-22 15:28:00,
2013-05-22 11:33:00,51.5,48.7,29.94,NNE,30,1.1,1.1,90,0.00,OVC,,0.01,WeatherDisplay:10.37,2013-05-22 15:33:00,
2013-05-22 11:38:00,51.9,49.1,29.94,NNE,30,2.3,2.3,90,0.00,OVC,,0.01,WeatherDisplay:10.37,2013-05-22 15:38:00,
2013-05-22 11:43:00,52.4,49.6,29.94,NNE,30,2.3,2.3,90,0.00,OVC,,0.01,WeatherDisplay:10.37,2013-05-22 15:43:00,
2013-05-22 11:48:00,52.8,49.9,29.94,NNE,30,3.5,3.5,90,0.00,OVC,,0.01,WeatherDisplay:10.37,2013-05-22 15:48:00,
2013-05-22 11:53:00,52.1,49.3,29.94,NNE,30,2.3,2.3,90,0.00,OVC,,0.01,WeatherDisplay:10.37,2013-05-22 15:53:00,
2013-05-22 11:58:00,53.2,50.3,29.94,NNE,30,3.5,3.5,90,0.00,OVC,,0.01,WeatherDisplay:10.37,2013-05-22 15:58:00,
2013-05-22 12:03:00,53.3,50.4,29.94,NNE,30,3.5,3.5,90,0.00,OVC,,0.01,WeatherDisplay:10.37,2013-05-22 16:03:00,
2013-05-22 12:08:00,53.6,50.7,29.94,NNE,30,2.3,2.3,90,0.00,OVC,,0.01,WeatherDisplay:10.37,2013-05-22 16:08:00,
2013-05-22 12:13:00,53.5,50.6,29.94,NNE,30,3.5,3.5,90,0.00,OVC,,0.01,WeatherDisplay:10.37,2013-05-22 16:13:00,
2013-05-22 12:18:00,54.4,51.5,29.94,NNE,30,2.3,2.3,90,0.00,OVC,,0.01,WeatherDisplay:10.37,2013-05-22 16:18:00,
2013-05-22 12:23:00,55.0,52.1,29.94,NNE,30,2.3,2.3,90,0.00,OVC,,0.01,WeatherDisplay:10.37,2013-05-22 16:23:00,
2013-05-22 12:28:00,54.4,51.5,29.94,NNE,30,1.1,1.1,90,0.00,OVC,,0.01,WeatherDisplay:10.37,2013-05-22 16:28:00,
2013-05-22 12:33:00,55.5,52.6,29.94,NNE,30,1.1,1.1,90,0.00,OVC,,0.01,WeatherDisplay:10.37,2013-05-22 16:33:00,
2013-05-22 12:38:00,55.4,52.5,29.94,NNE,30,2.3,2.3,90,0.00,OVC,,0.01,WeatherDisplay:10.37,2013-05-22 16:38:00,
2013-05-22 12:43:00,55.4,52.5,29.94,NNE,30,2.3,2.3,90,0.00,OVC,,0.01,WeatherDisplay:10.37,2013-05-22 16:43:00,
2013-05-22 12:48:00,55.9,53.0,29.94,NNE,30,1.1,1.1,90,0.00,OVC,,0.01,WeatherDisplay:10.37,2013-05-22 16:48:00,
2013-05-22 12:53:00,55.8,52.9,29.94,NNE,30,3.5,3.5,90,0.00,OVC,,0.01,WeatherDisplay:10.37,2013-05-22 16:53:00,
2013-05-22 12:58:00,55.8,52.9,29.94,NNE,30,2.3,2.3,90,0.00,OVC,,0.01,WeatherDisplay:10.37,2013-05-22 16:58:00,
2013-05-22 13:03:00,55.9,53.0,29.94,NNE,30,1.1,1.1,90,0.00,OVC,,0.01,WeatherDisplay:10.37,2013-05-22 17:03:00,
2013-05-22 13:08:00,55.7,52.8,29.94,NNE,30,2.3,2.3,90,0.00,OVC,,0.01,WeatherDisplay:10.37,2013-05-22 17:08:00,
2013-05-22 13:13:00,55.3,51.2,29.94,NNE,30,0.0,0.0,86,0.00,OVC,,0.01,WeatherDisplay:10.37,2013-05-22 17:13:00,
2013-05-22 13:18:00,55.8,51.7,29.94,NNE,30,0.0,0.0,86,0.00,OVC,,0.01,WeatherDisplay:10.37,2013-05-22 17:18:00,
2013-05-22 13:23:00,55.9,51.8,29.94,NNE,30,2.3,2.3,86,0.00,OVC,,0.01,WeatherDisplay:10.37,2013-05-22 17:23:00,
2013-05-22 13:28:00,55.7,51.6,29.94,NNE,30,0.0,0.0,86,0.00,OVC,,0.01,WeatherDisplay:10.37,2013-05-22 17:28:00,
2013-05-22 13:33:00,55.9,50.5,29.93,NNE,30,0.0,0.0,82,0.00,OVC,,0.01,WeatherDisplay:10.37,2013-05-22 17:33:00,
2013-05-22 13:38:00,56.0,50.6,29.93,NNE,30,0.0,0.0,82,0.00,OVC,,0.01,WeatherDisplay:10.37,2013-05-22 17:38:00,
2013-05-22 13:43:00,56.1,50.7,29.93,NNE,30,0.0,0.0,82,0.00,OVC,,0.01,WeatherDisplay:10.37,2013-05-22 17:43:00,
2013-05-22 13:48:00,56.0,50.6,29.93,NNE,30,0.0,0.0,82,0.00,OVC,,0.01,WeatherDisplay:10.37,2013-05-22 17:48:00,
2013-05-22 13:53:00,56.2,50.8,29.93,NNE,30,1.1,1.1,82,0.00,OVC,,0.01,WeatherDisplay:10.37,2013-05-22 17:53:00,
2013-05-22 13:58:00,56.4,51.0,29.93,NNE,30,1.1,1.1,82,0.00,OVC,,0.01,WeatherDisplay:10.37,2013-05-22 17:58:00,
2013-05-22 14:03:00,56.6,51.2,29.93,NNE,30,0.0,0.0,82,0.00,OVC,,0.01,WeatherDisplay:10.37,2013-05-22 18:03:00,
2013-05-22 14:08:00,56.5,51.1,29.93,NNE,30,1.1,0.0,82,0.00,OVC,,0.01,WeatherDisplay:10.37,2013-05-22 18:08:00,
2013-05-22 14:13:00,56.6,52.5,29.92,NNE,30,1.1,1.1,86,0.00,OVC,,0.01,WeatherDisplay:10.37,2013-05-22 18:13:00,
2013-05-22 14:18:00,56.8,52.7,29.92,NNE,30,1.1,0.0,86,0.00,OVC,,0.01,WeatherDisplay:10.37,2013-05-22 18:18:00,
2013-05-22 14:23:00,56.8,52.7,29.92,NNE,30,0.0,0.0,86,0.00,OVC,,0.01,WeatherDisplay:10.37,2013-05-22 18:23:00,
2013-05-22 14:28:00,56.8,52.7,29.92,NNE,30,0.0,0.0,86,0.00,OVC,,0.01,WeatherDisplay:10.37,2013-05-22 18:28:00,
2013-05-22 14:33:00,56.9,52.8,29.92,NNE,30,0.0,0.0,86,0.00,OVC,,0.01,WeatherDisplay:10.37,2013-05-22 18:33:00,
2013-05-22 14:38:00,56.9,52.8,29.92,NNE,30,0.0,0.0,86,0.00,OVC,,0.01,WeatherDisplay:10.37,2013-05-22 18:38:00,
2013-05-22 14:43:00,57.1,53.0,29.92,NNE,30,0.0,0.0,86,0.00,OVC,,0.01,WeatherDisplay:10.37,2013-05-22 18:43:00,
2013-05-22 14:48:00,57.1,53.0,29.92,NNE,30,1.1,1.1,86,0.00,OVC,,0.01,WeatherDisplay:10.37,2013-05-22 18:48:00,
2013-05-22 14:53:00,57.0,53.2,29.92,NNE,30,1.1,0.0,87,0.00,OVC,,0.01,WeatherDisplay:10.37,2013-05-22 18:53:00,
2013-05-22 14:58:00,56.9,53.1,29.92,NNE,30,1.1,0.0,87,0.00,OVC,,0.01,WeatherDisplay:10.37,2013-05-22 18:58:00,
2013-05-22 15:03:00,57.0,53.2,29.92,NNE,30,0.0,0.0,87,0.00,OVC,,0.01,WeatherDisplay:10.37,2013-05-22 19:03:00,
2013-05-22 15:08:00,57.0,53.2,29.92,NNE,30,0.0,0.0,87,0.00,OVC,,0.01,WeatherDisplay:10.37,2013-05-22 19:08:00,
2013-05-22 15:13:00,57.1,53.9,29.92,NNE,30,0.0,0.0,89,0.00,OVC,,0.01,WeatherDisplay:10.37,2013-05-22 19:13:00,
2013-05-22 15:18:00,57.2,54.0,29.92,NNE,30,1.1,1.1,89,0.00,OVC,,0.01,WeatherDisplay:10.37,2013-05-22 19:18:00,
2013-05-22 15:23:00,57.3,54.1,29.92,NNE,30,0.0,0.0,89,0.00,OVC,,0.01,WeatherDisplay:10.37,2013-05-22 19:23:00,
2013-05-22 15:28:00,57.4,54.2,29.92,NNE,30,0.0,0.0,89,0.00,OVC,,0.01,WeatherDisplay:10.37,2013-05-22 19:28:00,
2013-05-22 15:33:00,57.4,54.2,29.92,NNE,30,1.1,1.1,89,0.00,OVC,,0.01,WeatherDisplay:10.37,2013-05-22 19:33:00,
2013-05-22 15:38:00,57.3,54.1,29.92,NNE,30,1.1,1.1,89,0.00,OVC,,0.01,WeatherDisplay:10.37,2013-05-22 19:38:00,
2013-05-22 15:43:00,57.2,54.0,29.92,NNE,30,1.1,1.1,89,0.00,OVC,,0.01,WeatherDisplay:10.37,2013-05-22 19:43:00,
2013-05-22 15:48:00,57.2,54.0,29.92,NNE,30,1.1,0.0,89,0.00,OVC,,0.01,WeatherDisplay:10.37,2013-05-22 19:48:00,
2013-05-22 15:53:00,57.1,53.9,29.92,NNE,30,0.0,0.0,89,0.00,OVC,,0.01,WeatherDisplay:10.37,2013-05-22 19:53:00,
2013-05-22 15:58:00,57.2,54.0,29.92,NNE,30,0.0,0.0,89,0.00,OVC,,0.01,WeatherDisplay:10.37,2013-05-22 19:58:00,
2013-05-22 16:03:00,56.9,53.7,29.92,NNE,30,0.0,0.0,89,0.00,OVC,,0.01,WeatherDisplay:10.37,2013-05-22 20:03:00,
2013-05-22 16:08:00,57.2,54.0,29.92,NNE,30,1.1,1.1,89,0.00,OVC,,0.01,WeatherDisplay:10.37,2013-05-22 20:08:00,
2013-05-22 16:13:00,57.3,53.1,29.92,NNE,30,0.0,0.0,86,0.00,OVC,,0.01,WeatherDisplay:10.37,2013-05-22 20:13:00,
2013-05-22 16:18:00,57.0,52.9,29.92,NNE,30,0.0,0.0,86,0.00,OVC,,0.01,WeatherDisplay:10.37,2013-05-22 20:18:00,
2013-05-22 16:23:00,57.0,52.9,29.92,NNE,30,0.0,0.0,86,0.00,OVC,,0.01,WeatherDisplay:10.37,2013-05-22 20:23:00,
2013-05-22 16:28:00,57.1,53.0,29.92,NNE,30,0.0,0.0,86,0.00,OVC,,0.01,WeatherDisplay:10.37,2013-05-22 20:28:00,
2013-05-22 16:33:00,56.9,53.1,29.91,NNE,30,0.0,0.0,87,0.00,OVC,,0.01,WeatherDisplay:10.37,2013-05-22 20:33:00,
2013-05-22 16:38:00,56.8,53.0,29.91,NNE,30,0.0,0.0,87,0.00,OVC,,0.01,WeatherDisplay:10.37,2013-05-22 20:38:00,
2013-05-22 16:43:00,56.8,53.0,29.91,NNE,30,0.0,0.0,87,0.00,OVC,,0.01,WeatherDisplay:10.37,2013-05-22 20:43:00,
2013-05-22 16:48:00,56.8,53.0,29.91,NNE,30,0.0,0.0,87,0.00,OVC,,0.01,WeatherDisplay:10.37,2013-05-22 20:48:00,
2013-05-22 16:53:00,56.7,52.9,29.91,NNE,30,0.0,0.0,87,0.00,OVC,,0.01,WeatherDisplay:10.37,2013-05-22 20:53:00,
2013-05-22 16:58:00,56.8,53.0,29.91,NNE,30,0.0,0.0,87,0.00,OVC,,0.01,WeatherDisplay:10.37,2013-05-22 20:58:00,
2013-05-22 17:03:00,56.8,53.0,29.91,NNE,30,0.0,0.0,87,0.00,OVC,,0.01,WeatherDisplay:10.37,2013-05-22 21:03:00,
2013-05-22 17:08:00,56.8,53.0,29.91,NNE,30,0.0,0.0,87,0.00,OVC,,0.01,WeatherDisplay:10.37,2013-05-22 21:08:00,
2013-05-22 17:13:00,56.9,54.0,29.91,NNE,30,0.0,0.0,90,0.00,OVC,,0.01,WeatherDisplay:10.37,2013-05-22 21:13:00,
2013-05-22 17:18:00,56.9,54.0,29.91,NNE,30,0.0,0.0,90,0.00,OVC,,0.01,WeatherDisplay:10.37,2013-05-22 21:18:00,
2013-05-22 17:23:00,56.6,53.7,29.91,NNE,30,1.1,1.1,90,0.00,OVC,,0.01,WeatherDisplay:10.37,2013-05-22 21:23:00,
2013-05-22 17:28:00,56.2,53.3,29.91,NNE,29,1.1,1.1,90,0.00,OVC,,0.01,WeatherDisplay:10.37,2013-05-22 21:28:00,
2013-05-22 17:33:00,56.1,53.2,29.91,NNE,32,1.1,1.1,90,0.00,OVC,,0.01,WeatherDisplay:10.37,2013-05-22 21:33:00,
2013-05-22 17:38:00,55.8,52.9,29.91,NNE,32,3.5,3.5,90,0.00,OVC,,0.01,WeatherDisplay:10.37,2013-05-22 21:38:00,
2013-05-22 17:43:00,55.6,52.7,29.91,NE,37,1.1,1.1,90,0.00,OVC,,0.01,WeatherDisplay:10.37,2013-05-22 21:43:00,
2013-05-22 17:48:00,55.3,52.4,29.91,NE,40,1.1,1.1,90,0.00,OVC,,0.01,WeatherDisplay:10.37,2013-05-22 21:48:00,
2013-05-22 17:53:00,54.7,51.8,29.91,NE,40,1.1,1.1,90,0.00,OVC,,0.01,WeatherDisplay:10.37,2013-05-22 21:53:00,
2013-05-22 17:58:00,54.5,51.6,29.91,NE,45,2.3,2.3,90,0.00,OVC,,0.01,WeatherDisplay:10.37,2013-05-22 21:58:00,
2013-05-22 18:03:00,54.4,51.5,29.91,NE,45,0.0,0.0,90,0.00,OVC,,0.01,WeatherDisplay:10.37,2013-05-22 22:03:00,
2013-05-22 18:08:00,54.4,51.5,29.91,NE,45,1.1,0.0,90,0.00,OVC,,0.01,WeatherDisplay:10.37,2013-05-22 22:08:00,
2013-05-22 18:13:00,54.4,53.3,29.91,NE,45,0.0,0.1,96,0.00,-RA,,0.01,WeatherDisplay:10.37,2013-05-22 22:13:00,
2013-05-22 18:18:00,54.0,52.9,29.91,NE,45,1.1,0.0,96,0.00,-RA,,0.01,WeatherDisplay:10.37,2013-05-22 22:18:00,
2013-05-22 18:23:00,54.0,52.9,29.91,NE,45,1.1,1.1,96,0.00,-RA,,0.01,WeatherDisplay:10.37,2013-05-22 22:23:00,
2013-05-22 18:28:00,54.1,53.0,29.91,NE,45,1.1,1.1,96,0.00,-RA,,0.01,WeatherDisplay:10.37,2013-05-22 22:28:00,
2013-05-22 18:33:00,54.1,53.0,29.91,NE,45,2.3,2.3,96,0.00,-RA,,0.01,WeatherDisplay:10.37,2013-05-22 22:33:00,
2013-05-22 18:38:00,53.8,52.7,29.91,NE,45,1.1,1.1,96,0.00,-RA,,0.01,WeatherDisplay:10.37,2013-05-22 22:38:00,
2013-05-22 18:43:00,53.8,52.7,29.91,NE,45,1.1,0.0,96,0.00,-RA,,0.01,WeatherDisplay:10.37,2013-05-22 22:43:00,
2013-05-22 18:48:00,53.7,52.6,29.91,NE,45,1.1,1.1,96,0.00,-RA,,0.01,WeatherDisplay:10.37,2013-05-22 22:48:00,
2013-05-22 18:53:00,53.7,52.6,29.91,NE,45,1.1,1.1,96,0.00,-RA,,0.01,WeatherDisplay:10.37,2013-05-22 22:53:00,
2013-05-22 18:58:00,53.8,52.7,29.91,NE,45,0.0,0.0,96,0.00,-RA,,0.01,WeatherDisplay:10.37,2013-05-22 22:58:00,
2013-05-22 19:03:00,53.8,53.8,29.92,NE,45,0.0,0.0,100,0.00,-RA,,0.01,WeatherDisplay:10.37,2013-05-22 23:03:00,
2013-05-22 19:08:00,53.6,53.6,29.92,NE,45,1.1,1.1,100,0.00,-RA,,0.01,WeatherDisplay:10.37,2013-05-22 23:08:00,
2013-05-22 19:13:00,53.7,53.7,29.92,NE,45,0.0,0.0,100,0.00,-RA,,0.01,WeatherDisplay:10.37,2013-05-22 23:13:00,
2013-05-22 19:18:00,53.4,53.4,29.92,NE,45,0.0,0.0,100,0.00,-RA,,0.01,WeatherDisplay:10.37,2013-05-22 23:18:00,
2013-05-22 19:23:00,53.1,53.1,29.92,NE,45,0.0,0.0,100,0.00,-RA,,0.01,WeatherDisplay:10.37,2013-05-22 23:23:00,
2013-05-22 19:28:00,52.9,52.9,29.92,NE,45,0.0,0.0,100,0.00,-RA,,0.01,WeatherDisplay:10.37,2013-05-22 23:28:00,
2013-05-22 19:33:00,52.6,52.6,29.92,NE,45,0.0,0.0,100,0.00,-RA,,0.01,WeatherDisplay:10.37,2013-05-22 23:33:00,
2013-05-22 19:38:00,52.8,52.8,29.92,NE,45,0.0,0.0,100,0.00,-RA,,0.01,WeatherDisplay:10.37,2013-05-22 23:38:00,
2013-05-22 19:43:00,53.0,53.0,29.92,NE,45,0.0,0.0,100,0.00,-RA,,0.01,WeatherDisplay:10.37,2013-05-22 23:43:00,
2013-05-22 19:48:00,53.0,53.0,29.92,NE,45,0.0,0.0,100,0.00,-RA,,0.01,WeatherDisplay:10.37,2013-05-22 23:48:00,
2013-05-22 19:53:00,53.2,53.2,29.92,NE,45,0.0,0.0,100,0.00,-RA,,0.01,WeatherDisplay:10.37,2013-05-22 23:53:00,
2013-05-22 19:58:00,52.6,52.6,29.92,NE,45,0.0,0.0,100,0.00,-RA,,0.01,WeatherDisplay:10.37,2013-05-22 23:58:00,
2013-05-22 20:03:00,52.9,52.9,29.92,NE,45,0.0,0.0,100,0.00,-RA,,0.01,WeatherDisplay:10.37,2013-05-23 00:03:00,
2013-05-22 20:08:00,52.9,52.9,29.92,NE,45,0.0,0.0,100,0.00,-RA,,0.01,WeatherDisplay:10.37,2013-05-23 00:08:00,
2013-05-22 20:13:00,52.6,52.6,29.95,NE,45,0.0,0.0,100,0.00,OVC,,0.01,WeatherDisplay:10.37,2013-05-23 00:13:00,
2013-05-22 20:18:00,52.4,52.4,29.95,NE,45,1.0,1.0,100,0.00,OVC,,0.01,WeatherDisplay:10.37,2013-05-23 00:18:00,
2013-05-22 20:23:00,52.2,52.2,29.95,NE,45,0.0,0.0,100,0.00,OVC,,0.01,WeatherDisplay:10.37,2013-05-23 00:23:00,
2013-05-22 20:28:00,52.0,52.0,29.95,NE,45,0.0,0.0,100,0.00,OVC,,0.01,WeatherDisplay:10.37,2013-05-23 00:28:00,
2013-05-22 20:33:00,52.1,52.1,29.95,NE,45,0.0,0.0,100,0.00,OVC,,0.01,WeatherDisplay:10.37,2013-05-23 00:33:00,
2013-05-22 20:38:00,51.9,51.9,29.95,NE,45,0.0,0.0,100,0.00,OVC,,0.01,WeatherDisplay:10.37,2013-05-23 00:38:00,
2013-05-22 20:43:00,52.0,52.0,29.95,NE,45,1.1,1.1,100,0.00,OVC,,0.01,WeatherDisplay:10.37,2013-05-23 00:43:00,
2013-05-22 20:48:00,51.9,51.9,29.95,NE,45,0.0,0.0,100,0.00,OVC,,0.01,WeatherDisplay:10.37,2013-05-23 00:48:00,
2013-05-22 20:53:00,52.0,52.0,29.95,NE,45,1.1,0.0,100,0.00,OVC,,0.01,WeatherDisplay:10.37,2013-05-23 00:53:00,
2013-05-22 20:58:00,51.8,51.8,29.95,NE,45,1.1,1.1,100,0.00,OVC,,0.01,WeatherDisplay:10.37,2013-05-23 00:58:00,
2013-05-22 21:03:00,51.8,49.5,29.96,NE,45,1.1,0.0,92,0.00,OVC,,0.01,WeatherDisplay:10.37,2013-05-23 01:03:00,
2013-05-22 21:08:00,51.7,49.5,29.96,NE,45,1.1,1.1,92,0.00,OVC,,0.01,WeatherDisplay:10.37,2013-05-23 01:08:00,
2013-05-22 21:13:00,51.6,49.4,29.96,NE,45,0.0,0.0,92,0.00,OVC,,0.01,WeatherDisplay:10.37,2013-05-23 01:13:00,
2013-05-22 21:18:00,51.5,49.3,29.96,NE,45,0.0,0.0,92,0.00,OVC,,0.01,WeatherDisplay:10.37,2013-05-23 01:18:00,
2013-05-22 21:23:00,51.6,49.4,29.96,NE,45,0.0,0.0,92,0.00,OVC,,0.01,WeatherDisplay:10.37,2013-05-23 01:23:00,
2013-05-22 21:28:00,51.6,49.4,29.96,NE,45,0.0,0.0,92,0.00,OVC,,0.01,WeatherDisplay:10.37,2013-05-23 01:28:00,
2013-05-22 21:33:00,51.8,49.5,29.96,NE,45,1.1,1.1,92,0.00,OVC,,0.01,WeatherDisplay:10.37,2013-05-23 01:33:00,
2013-05-22 21:38:00,51.7,49.5,29.96,NE,45,1.1,0.0,92,0.00,OVC,,0.01,WeatherDisplay:10.37,2013-05-23 01:38:00,
2013-05-22 21:43:00,51.5,49.3,29.96,NE,45,1.1,1.1,92,0.00,OVC,,0.01,WeatherDisplay:10.37,2013-05-23 01:43:00,
2013-05-22 21:48:00,51.6,49.4,29.96,NE,45,0.0,0.0,92,0.00,OVC,,0.01,WeatherDisplay:10.37,2013-05-23 01:48:00,
2013-05-22 21:53:00,51.4,49.2,29.96,NE,45,0.0,0.0,92,0.00,OVC,,0.01,WeatherDisplay:10.37,2013-05-23 01:53:00,
2013-05-22 21:58:00,51.4,49.2,29.96,NE,45,0.0,0.0,92,0.00,OVC,,0.01,WeatherDisplay:10.37,2013-05-23 01:58:00,
2013-05-22 22:03:00,51.4,51.4,29.96,NE,45,0.0,0.0,100,0.00,OVC,,0.01,WeatherDisplay:10.37,2013-05-23 02:03:00,
2013-05-22 22:08:00,51.4,51.4,29.96,NE,45,0.0,0.0,100,0.00,OVC,,0.01,WeatherDisplay:10.37,2013-05-23 02:08:00,
2013-05-22 22:13:00,51.3,51.3,29.96,NE,45,1.1,1.1,100,0.00,OVC,,0.01,WeatherDisplay:10.37,2013-05-23 02:13:00,
2013-05-22 22:18:00,51.4,51.4,29.96,NE,45,1.1,1.1,100,0.00,OVC,,0.01,WeatherDisplay:10.37,2013-05-23 02:18:00,
2013-05-22 22:23:00,51.2,51.2,29.96,NE,45,1.1,1.1,100,0.00,OVC,,0.01,WeatherDisplay:10.37,2013-05-23 02:23:00,
2013-05-22 22:28:00,51.1,51.1,29.96,NE,45,1.1,0.0,100,0.00,OVC,,0.01,WeatherDisplay:10.37,2013-05-23 02:28:00,
2013-05-22 22:33:00,51.1,51.1,29.96,NE,45,0.0,0.0,100,0.00,OVC,,0.01,WeatherDisplay:10.37,2013-05-23 02:33:00,
2013-05-22 22:38:00,50.9,50.9,29.96,NE,45,1.1,1.1,100,0.00,OVC,,0.01,WeatherDisplay:10.37,2013-05-23 02:38:00,
2013-05-22 22:43:00,50.8,50.8,29.96,NE,45,0.0,0.0,100,0.00,OVC,,0.01,WeatherDisplay:10.37,2013-05-23 02:43:00,
2013-05-22 22:48:00,50.6,50.6,29.96,NE,45,0.0,0.0,100,0.00,OVC,,0.01,WeatherDisplay:10.37,2013-05-23 02:48:00,
2013-05-22 22:53:00,50.5,50.5,29.96,NE,45,0.0,0.0,100,0.00,OVC,,0.01,WeatherDisplay:10.37,2013-05-23 02:53:00,
2013-05-22 22:58:00,50.3,50.3,29.96,NE,45,0.0,0.0,100,0.00,OVC,,0.01,WeatherDisplay:10.37,2013-05-23 02:58:00,
2013-05-22 23:03:00,50.4,50.4,29.96,NE,45,0.0,0.0,100,0.00,OVC,,0.01,WeatherDisplay:10.37,2013-05-23 03:03:00,
2013-05-22 23:08:00,50.3,50.3,29.96,NE,45,0.0,0.0,100,0.00,OVC,,0.01,WeatherDisplay:10.37,2013-05-23 03:08:00,
2013-05-22 23:13:00,50.2,50.2,29.96,NE,45,0.0,0.0,100,0.00,OVC,,0.01,WeatherDisplay:10.37,2013-05-23 03:13:00,
2013-05-22 23:18:00,50.2,50.2,29.96,NE,45,0.0,0.0,100,0.00,OVC,,0.01,WeatherDisplay:10.37,2013-05-23 03:18:00,
2013-05-22 23:23:00,50.0,50.0,29.96,NE,45,1.1,1.1,100,0.00,OVC,,0.01,WeatherDisplay:10.37,2013-05-23 03:23:00,
2013-05-22 23:28:00,50.0,50.0,29.96,NE,45,0.0,0.0,100,0.01,RA,,0.02,WeatherDisplay:10.37,2013-05-23 03:28:00,
2013-05-22 23:33:00,49.9,49.9,29.96,NE,45,1.1,1.1,100,0.01,OVC,,0.02,WeatherDisplay:10.37,2013-05-23 03:33:00,
2013-05-22 23:38:00,49.7,49.7,29.96,NE,45,0.0,0.0,100,0.01,OVC,,0.02,WeatherDisplay:10.37,2013-05-23 03:38:00,
2013-05-22 23:43:00,49.6,49.6,29.96,NE,45,1.0,0.0,100,0.01,OVC,,0.02,WeatherDisplay:10.37,2013-05-23 03:43:00,
2013-05-22 23:48:00,49.7,49.7,29.96,NE,45,0.0,0.0,100,0.01,OVC,,0.02,WeatherDisplay:10.37,2013-05-23 03:48:00,
2013-05-22 23:53:00,49.6,49.6,29.94,NE,45,1.1,1.1,100,0.01,OVC,,0.02,WeatherDisplay:10.37,2013-05-23 03:53:00,
2013-05-22 23:58:00,49.8,49.8,29.94,NE,45,1.1,1.1,100,0.01,OVC,,0.02,WeatherDisplay:10.37,2013-05-23 03:58:00,